CW2732 Elche ES current weather conditions

sailwx.info

Wind from 011 at 3 knots gusting 9

Air temperature 18.9° C
Dewpoint 7.0° C

Last reported at 2018-Feb-20 11:03 UTC.
Time now 2018-Feb-20 11:57 UTC

Location: N 38°15' W 000°42'.
View on Google Maps.

See reports from other nearby stations

  
Tides and Currents Weather Stations Pressure Air Temp Water Temp Dewpoint Dewpoint Depression Visibility Wind Speed Wind Dir Waves Ship Positions
date/time (UTC)wind fromknots sea level pressurealtimeterstation pressurevisibilityair tempwater tempwave heightnotes
2018-Feb-20 11:03 011 3 gusting 9 18.9
2018-Feb-20 10:54 336 4 gusting 13 18.3
2018-Feb-20 10:44 245 3 gusting 12 17.8
2018-Feb-20 10:34 350 1 gusting 13 17.8
2018-Feb-20 10:24 269 3 gusting 14 17.8
2018-Feb-20 10:13 349 3 gusting 10 17.2
2018-Feb-20 10:03 337 1 gusting 12 17.2
2018-Feb-20 09:54 317 2 gusting 12 17.2
2018-Feb-20 09:44 315 4 gusting 12 17.2
2018-Feb-20 09:34 348 2 gusting 11 17.2
2018-Feb-20 09:23 326 0 gusting 6 16.7
2018-Feb-20 09:14 299 1 gusting 6 16.7
2018-Feb-20 09:03 319 15.6
2018-Feb-20 08:53 308 15.0
2018-Feb-20 08:44 340 2 gusting 9 15.0
2018-Feb-20 08:34 340 3 gusting 8 14.4
2018-Feb-20 08:24 325 3 gusting 9 13.9
2018-Feb-20 08:13 279 1 gusting 9 13.3
2018-Feb-20 08:03 278 1 gusting 7 12.8
2018-Feb-20 07:54 299 0 gusting 6 12.2
2018-Feb-20 07:44 271 11.7
2018-Feb-20 07:34 309 11.1
2018-Feb-20 07:24 310 11.1
2018-Feb-20 07:14 308 0 gusting 6 11.1
2018-Feb-20 07:03 298 10.6
2018-Feb-20 06:54 284 10.0
2018-Feb-20 06:44 277 10.0
2018-Feb-20 06:34 275 10.6
2018-Feb-20 06:24 286 2 gusting 5 10.6
2018-Feb-20 06:14 304 0 gusting 6 10.6
2018-Feb-20 06:04 300 0 gusting 6 10.0
2018-Feb-20 05:53 292 1 gusting 6 10.0
2018-Feb-20 05:43 319 10.6
2018-Feb-20 05:34 325 10.6
2018-Feb-20 05:24 323 10.6
2018-Feb-20 05:14 306 10.6
2018-Feb-20 05:04 292 0 gusting 6 10.0
2018-Feb-20 04:54 294 2 gusting 6 10.0
2018-Feb-20 04:43 277 9.4
2018-Feb-20 04:33 278 0 gusting 6 9.4
2018-Feb-20 04:23 336 9.4
2018-Feb-20 04:13 273 9.4
2018-Feb-20 04:04 275 9.4
2018-Feb-20 03:54 273 10.0
2018-Feb-20 03:44 275 10.0
2018-Feb-20 03:34 274 10.0
2018-Feb-20 03:24 273 10.0
2018-Feb-20 03:13 279 9.4
2018-Feb-20 03:03 290 9.4
2018-Feb-20 02:54 290 10.0
2018-Feb-20 02:44 288 10.0
2018-Feb-20 02:34 288 10.0
2018-Feb-20 02:24 288 10.0
2018-Feb-20 02:13 288 10.0
2018-Feb-20 02:03 288 10.0
2018-Feb-20 01:54 288 10.0
2018-Feb-20 01:44 288 10.0
2018-Feb-20 01:34 288 10.0
2018-Feb-20 01:24 284 10.0
2018-Feb-20 01:14 280 10.6
2018-Feb-20 01:04 279 10.6
2018-Feb-20 00:53 302 10.6
2018-Feb-20 00:43 306 10.6
2018-Feb-20 00:33 311 0 gusting 6 10.6
2018-Feb-20 00:23 313 10.6
2018-Feb-20 00:14 305 10.6
2018-Feb-20 00:04 304 10.6
2018-Feb-19 23:54 299 11.1
2018-Feb-19 23:44 342 11.1
2018-Feb-19 23:33 335 11.1
2018-Feb-19 23:23 342 0 gusting 5 11.1
2018-Feb-19 23:13 327 11.1
2018-Feb-19 23:03 340 11.1
2018-Feb-19 22:54 342 11.1
2018-Feb-19 22:44 342 11.7
2018-Feb-19 22:34 033 11.7
2018-Feb-19 22:24 140 11.7
2018-Feb-19 22:13 140 11.7
2018-Feb-19 22:03 140 11.7
2018-Feb-19 21:54 140 12.2
2018-Feb-19 21:44 140 12.2
2018-Feb-19 21:34 140 12.2
2018-Feb-19 21:24 140 12.2
2018-Feb-19 21:13 140 12.2
2018-Feb-19 21:04 140 12.2
2018-Feb-19 20:53 140 12.2
2018-Feb-19 20:44 140 12.2
2018-Feb-19 20:33 140 12.2
2018-Feb-19 20:24 140 12.2
2018-Feb-19 20:14 140 12.2
2018-Feb-19 20:04 140 12.2
2018-Feb-19 19:53 139 12.2
2018-Feb-19 19:43 140 12.2
2018-Feb-19 19:34 140 12.2
2018-Feb-19 19:24 138 12.2
2018-Feb-19 19:14 140 12.2
2018-Feb-19 19:04 140 12.8
2018-Feb-19 18:53 139 12.8
2018-Feb-19 18:43 139 12.8
2018-Feb-19 18:33 140 12.8
2018-Feb-19 18:23 140 12.8
2018-Feb-19 18:14 140 12.8
2018-Feb-19 18:04 140 12.8
2018-Feb-19 17:53 140 13.3
2018-Feb-19 17:44 140 13.3
2018-Feb-19 17:33 138 13.3
2018-Feb-19 17:23 136 13.9
2018-Feb-19 17:13 140 13.9
2018-Feb-19 17:03 128 1 gusting 5 13.9
2018-Feb-19 16:53 137 13.9
2018-Feb-19 16:43 131 0 gusting 7 14.4
2018-Feb-19 16:33 129 2 gusting 6 14.4
2018-Feb-19 16:24 150 1 gusting 6 15.0
2018-Feb-19 16:13 131 1 gusting 7 15.0
2018-Feb-19 16:04 163 2 gusting 7 15.0
2018-Feb-19 15:54 127 1 gusting 9 15.6
2018-Feb-19 15:43 138 1 gusting 5 15.6
2018-Feb-19 15:33 131 1 gusting 6 15.6
2018-Feb-19 15:23 115 15.6
2018-Feb-19 15:13 120 15.6
2018-Feb-19 15:03 115 0 gusting 6 15.6
2018-Feb-19 14:54 109 0 gusting 8 15.6
2018-Feb-19 14:44 115 1 gusting 6 15.6
2018-Feb-19 14:34 114 0 gusting 9 15.6
2018-Feb-19 14:24 137 0 gusting 10 15.6
2018-Feb-19 14:14 123 3 gusting 11 16.1
2018-Feb-19 14:03 117 16.1
2018-Feb-19 13:53 090 16.1
2018-Feb-19 13:43 155 0 gusting 7 16.1
2018-Feb-19 13:33 111 1 gusting 7 16.7
2018-Feb-19 13:24 150 16.7
2018-Feb-19 13:13 084 16.7
2018-Feb-19 13:04 142 1 gusting 6 16.7
2018-Feb-19 12:53 147 0 gusting 5 17.2
2018-Feb-19 12:43 128 0 gusting 6 16.7
2018-Feb-19 12:33 150 16.7
2018-Feb-19 12:23 148 0 gusting 4 17.2
2018-Feb-19 12:13 132 0 gusting 6 17.2
2018-Feb-19 12:03 140 16.7
2018-Feb-19 11:54 138 17.2
2018-Feb-19 11:44 147 0 gusting 6 17.8
2018-Feb-19 11:34 237 17.8
2018-Feb-19 11:23 184 17.8
2018-Feb-19 11:13 140 0 gusting 4 17.8
2018-Feb-19 11:03 279 17.2
2018-Feb-19 10:53 287 17.2
2018-Feb-19 10:44 322 16.7
2018-Feb-19 10:34 322 16.7
2018-Feb-19 10:24 308 16.7
2018-Feb-19 10:14 309 17.2
2018-Feb-19 10:04 308 17.2
2018-Feb-19 09:53 304 16.7
2018-Feb-19 09:43 304 16.1
2018-Feb-19 09:34 304 15.6
2018-Feb-19 09:24 304 15.0
2018-Feb-19 09:13 339 14.4
2018-Feb-19 09:03 317 13.9
2018-Feb-19 08:53 329 0 gusting 6 13.3
2018-Feb-19 08:43 324 0 gusting 6 12.8
2018-Feb-19 08:33 288 0 gusting 4 12.8
2018-Feb-19 08:23 288 13.3
2018-Feb-19 08:13 293 0 gusting 6 13.9
2018-Feb-19 08:04 263 13.3
2018-Feb-19 07:54 244 12.8
2018-Feb-19 07:44 277 12.2
2018-Feb-19 07:33 281 11.7
2018-Feb-19 07:23 341 11.1
2018-Feb-19 07:13 341 10.6
2018-Feb-19 07:03 333 10.6
2018-Feb-19 06:54 333 0 gusting 6 10.6
2018-Feb-19 06:44 321 2 gusting 6 10.6
2018-Feb-19 06:33 325 0 gusting 8 10.6
2018-Feb-19 06:24 323 0 gusting 5 10.6
2018-Feb-19 06:13 323 0 gusting 6 10.6
2018-Feb-19 06:03 302 10.6
2018-Feb-19 05:53 304 0 gusting 4 10.6
2018-Feb-19 05:44 281 0 gusting 6 10.6
2018-Feb-19 05:34 322 10.6
2018-Feb-19 05:24 322 0 gusting 4 10.6
2018-Feb-19 05:14 323 10.6
2018-Feb-19 05:04 318 10.6
2018-Feb-19 04:53 317 10.6
2018-Feb-19 04:43 318 10.6
2018-Feb-19 04:34 317 10.6
2018-Feb-19 04:24 317 10.6
2018-Feb-19 04:14 317 10.6
2018-Feb-19 04:04 317 10.6
2018-Feb-19 03:53 317 10.6
2018-Feb-19 03:43 317 11.1
2018-Feb-19 03:33 320 11.1
2018-Feb-19 03:23 319 11.1
2018-Feb-19 03:13 317 11.1
2018-Feb-19 03:04 319 11.1
2018-Feb-19 02:53 321 11.1
2018-Feb-19 02:43 320 11.1
2018-Feb-19 02:33 320 11.1
2018-Feb-19 02:23 321 11.1
2018-Feb-19 02:13 321 11.1
2018-Feb-19 02:03 320 11.1
2018-Feb-19 01:54 319 11.7
2018-Feb-19 01:44 319 11.7
2018-Feb-19 01:34 319 11.7
2018-Feb-19 01:23 319 11.7
2018-Feb-19 01:13 321 11.7
2018-Feb-19 01:03 319 11.7
2018-Feb-19 00:54 320 12.2
2018-Feb-19 00:44 320 12.2
2018-Feb-19 00:34 321 12.2
2018-Feb-19 00:23 319 12.2
2018-Feb-19 00:13 320 12.2
2018-Feb-19 00:03 318 0 gusting 5 12.2
2018-Feb-18 23:53 336 0 gusting 4 12.2
2018-Feb-18 23:44 334 12.2
2018-Feb-18 23:33 336 12.2
2018-Feb-18 23:24 336 12.2
2018-Feb-18 23:14 340 12.2
2018-Feb-18 23:04 341 12.2
2018-Feb-18 22:53 342 12.2
2018-Feb-18 22:43 341 12.2
2018-Feb-18 22:33 342 12.2
2018-Feb-18 22:23 340 12.2
2018-Feb-18 22:14 341 12.2
2018-Feb-18 22:04 342 12.2
2018-Feb-18 21:53 005 12.2
2018-Feb-18 21:43 360 12.2
2018-Feb-18 21:33 005 12.2
2018-Feb-18 21:23 009 12.2
2018-Feb-18 21:13 009 12.2
2018-Feb-18 21:04 010 12.2
2018-Feb-18 20:53 360 12.2
2018-Feb-18 20:43 360 12.2
2018-Feb-18 20:33 005 12.2
2018-Feb-18 20:23 011 12.2
2018-Feb-18 20:13 011 12.2
2018-Feb-18 20:03 009 12.2
2018-Feb-18 19:53 009 12.2
2018-Feb-18 19:43 041 12.2
2018-Feb-18 19:33 041 12.2
2018-Feb-18 19:23 041 0 gusting 5 12.2
2018-Feb-18 19:13 056 2 gusting 5 12.2
2018-Feb-18 19:03 042 1 gusting 5 12.2
2018-Feb-18 18:54 069 0 gusting 3 12.2
2018-Feb-18 18:43 052 0 gusting 6 12.2
2018-Feb-18 18:33 083 1 gusting 6 12.2
2018-Feb-18 18:23 075 1 gusting 6 12.2
2018-Feb-18 18:13 094 2 gusting 6 12.2
2018-Feb-18 18:03 071 1 gusting 6 12.2
2018-Feb-18 17:54 057 0 gusting 6 12.2
2018-Feb-18 17:44 080 2 gusting 8 12.2
2018-Feb-18 17:33 087 12.2
2018-Feb-18 17:24 081 5 gusting 9 12.2
2018-Feb-18 17:13 076 2 gusting 8 12.2
2018-Feb-18 17:03 109 6 gusting 9 12.2
2018-Feb-18 16:53 080 5 gusting 9 12.2
2018-Feb-18 16:43 092 5 gusting 11 12.2
2018-Feb-18 16:34 063 4 gusting 9 12.2
2018-Feb-18 16:24 069 4 gusting 9 12.8
2018-Feb-18 16:13 094 6 gusting 12 12.8
2018-Feb-18 16:03 121 3 gusting 9 12.8
2018-Feb-18 15:53 096 6 gusting 9 13.3
2018-Feb-18 15:43 107 5 gusting 9 13.3
2018-Feb-18 15:33 077 4 gusting 10 13.3
2018-Feb-18 15:24 080 4 gusting 9 13.3
2018-Feb-18 15:13 098 5 gusting 10 13.3
2018-Feb-18 15:04 077 3 gusting 8 13.3
2018-Feb-18 14:53 110 5 gusting 9 13.3
2018-Feb-18 14:43 076 6 gusting 9 13.9
2018-Feb-18 14:33 099 0 gusting 9 13.9
2018-Feb-18 14:23 098 3 gusting 10 13.9
2018-Feb-18 14:13 069 1 gusting 7 13.9
2018-Feb-18 14:03 120 2 gusting 8 13.9
2018-Feb-18 13:57 088 1 gusting 7 13.3
2018-Feb-18 13:43 083 4 gusting 9 13.3
2018-Feb-18 13:33 084 4 gusting 7 13.9
2018-Feb-18 13:23 042 1 gusting 7 13.9
2018-Feb-18 13:13 060 4 gusting 8 13.9
2018-Feb-18 13:03 046 3 gusting 9 13.9
2018-Feb-18 12:54 102 2 gusting 9 13.9
2018-Feb-18 12:44 057 4 gusting 8 14.4
2018-Feb-18 12:34 074 4 gusting 12 13.9
2018-Feb-18 12:23 091 6 gusting 9 13.3
2018-Feb-18 12:13 105 6 gusting 8 13.3
2018-Feb-18 12:03 079 4 gusting 8 13.9
2018-Feb-18 11:53 086 4 gusting 8 13.3
2018-Feb-18 11:44 082 6 gusting 8 13.3
2018-Feb-18 11:34 082 2 gusting 8 13.3